Weather History for KS25 - August, 2013

Change the Weather History Date:

Saturday, August 31, 2013

  Actual Average (KISN) Record (KISN)
Temperature  
Mean Temperature 67 °F 64 °F  
Max Temperature 77 °F 79 °F 103 °F (1983)
Min Temperature 57 °F 49 °F 34 °F (1994)
Degree Days  
Heating Degree Days 0 4  
Month to date heating degree days 49  
Since 1 June heating degree days 191  
Since 1 July heating degree days 71  
Cooling Degree Days 2 3  
Month to date cooling degree days 166  
Year to date cooling degree days 429  
Since 1 June cooling degree days 416  
Growing Degree Days 17 (Base 50)    
Moisture  
Dew Point 52 °F    
Average Humidity 66    
Maximum Humidity 100    
Minimum Humidity 34    
Precipitation  
Precipitation 0.00 in 0.04 in 0.92 in (1922)
Month to date precipitation 1.45  
Year to date precipitation 11.12  
Sea Level Pressure  
Sea Level Pressure 29.91 in    
Wind  
Wind Speed 7 mph (West)    
Max Wind Speed 23 mph    
Max Gust Speed 33 mph    
Visibility 10 miles    
Events Rain    
T = Trace of Precipitation, MM = Missing Value Source: NWS Daily Summary

Daily Weather History Graph

Daily Weather History Graph

Search for Another Location

Airport or City:

Trip Planner

Search our weather history database for the weather conditions in past years. The results will help you decide how hot, cold, wet, or windy it might be!

Date:

Astronomy

Aug. 31, 2013 Rise Set
Actual Time 7:10 AM CDT 8:35 PM CDT
Civil Twilight 6:38 AM CDT 9:07 PM CDT
Nautical Twilight 5:59 AM CDT 9:45 PM CDT
Astronomical Twilight 5:17 AM CDT 10:27 PM CDT
Moon 2:28 AM CDT (8/31) 5:46 PM CDT (8/31)
Length of Visible Light 14h 28m
Length of Day
13h 24m
Waning Crescent, 21% of the Moon is Illuminated
Aug 31
Waning Crescent
Sep 5
New
Sep 12
First Quarter
Sep 19
Full
Sep 26
Last Quarter

Hourly Weather History & Observations

Time (CDT) Temp. Dew Point Humidity Pressure Visibility Wind Dir Wind Speed Gust Speed Precip Events Conditions
12:15 AM 62.6 °F 59.0 °F 88% 29.82 in 10.0 mi Calm Calm - N/A   Clear
12:35 AM 62.6 °F 59.0 °F 88% 29.82 in 10.0 mi Calm Calm - N/A   Clear
12:55 AM 60.8 °F 59.0 °F 94% 29.82 in 10.0 mi SW 4.6 mph - N/A   Clear
1:15 AM 60.8 °F 59.0 °F 94% 29.82 in 10.0 mi Calm Calm - N/A   Clear
1:35 AM 60.8 °F 59.0 °F 94% 29.81 in 10.0 mi Calm Calm - N/A   Clear
1:55 AM 59.0 °F 57.2 °F 94% 29.82 in 10.0 mi WSW 3.5 mph - N/A   Clear
2:15 AM 59.0 °F 57.2 °F 94% 29.82 in 10.0 mi Calm Calm - N/A   Clear
2:35 AM 59.0 °F 57.2 °F 94% 29.83 in 10.0 mi West 3.5 mph - N/A   Clear
2:55 AM 59.0 °F 57.2 °F 94% 29.83 in 10.0 mi SSW 3.5 mph - N/A   Clear
3:15 AM 60.8 °F 57.2 °F 88% 29.82 in 10.0 mi SW 8.1 mph - N/A   Clear
3:35 AM 59.0 °F 57.2 °F 94% 29.82 in 10.0 mi SSW 3.5 mph - N/A   Clear
3:55 AM 59.0 °F 57.2 °F 94% 29.82 in 10.0 mi Calm Calm - N/A   Clear
4:15 AM 59.0 °F 57.2 °F 94% 29.82 in 10.0 mi WSW 3.5 mph - N/A   Clear
4:35 AM 57.2 °F 57.2 °F 100% 29.82 in 10.0 mi SW 5.8 mph - N/A   Clear
4:55 AM 57.2 °F 57.2 °F 100% 29.82 in 10.0 mi SSW 4.6 mph - N/A   Clear
5:15 AM 57.2 °F 57.2 °F 100% 29.83 in 10.0 mi SW 5.8 mph - N/A   Clear
5:35 AM 60.8 °F 57.2 °F 88% 29.83 in 10.0 mi SSW 6.9 mph - N/A   Clear
5:55 AM 60.8 °F 57.2 °F 88% 29.83 in 10.0 mi SSW 5.8 mph - N/A   Clear
6:15 AM 59.0 °F 55.4 °F 88% 29.84 in 10.0 mi WSW 4.6 mph - N/A   Clear
6:35 AM 59.0 °F 55.4 °F 88% 29.84 in 10.0 mi SW 5.8 mph - N/A   Clear
6:55 AM 59.0 °F 55.4 °F 88% 29.85 in 10.0 mi WSW 5.8 mph - N/A   Clear
7:15 AM 59.0 °F 55.4 °F 88% 29.87 in 10.0 mi SSE 4.6 mph - N/A   Clear
7:35 AM 60.8 °F 55.4 °F 82% 29.87 in 10.0 mi SW 4.6 mph - N/A   Clear
7:55 AM 60.8 °F 55.4 °F 82% 29.88 in 10.0 mi South 4.6 mph - N/A   Partly Cloudy
8:15 AM 62.6 °F 53.6 °F 72% 29.89 in 9.0 mi WSW 8.1 mph - N/A   Mostly Cloudy
8:35 AM 62.6 °F 53.6 °F 72% 29.90 in 10.0 mi WNW 13.8 mph 17.3 mph N/A Rain Light Rain
8:55 AM 62.6 °F 51.8 °F 68% 29.90 in 10.0 mi West 10.4 mph - N/A   Scattered Clouds
9:15 AM 64.4 °F 51.8 °F 64% 29.92 in 10.0 mi West 11.5 mph 19.6 mph N/A   Scattered Clouds
9:35 AM 64.4 °F 51.8 °F 64% 29.92 in 10.0 mi WNW 10.4 mph 17.3 mph N/A   Partly Cloudy
9:55 AM 66.2 °F 51.8 °F 60% 29.92 in 10.0 mi NW 18.4 mph 23.0 mph N/A   Clear
10:15 AM 66.2 °F 51.8 °F 60% 29.93 in 10.0 mi WNW 16.1 mph 28.8 mph N/A   Scattered Clouds
10:35 AM 66.2 °F 53.6 °F 64% 29.94 in 10.0 mi NW 17.3 mph 25.3 mph N/A   Partly Cloudy
10:55 AM 68.0 °F 53.6 °F 60% 29.94 in 10.0 mi NW 18.4 mph 25.3 mph N/A   Clear
11:15 AM 66.2 °F 53.6 °F 64% 29.95 in 10.0 mi NW 12.7 mph 20.7 mph N/A   Clear
11:35 AM 69.8 °F 53.6 °F 56% 29.94 in 10.0 mi WNW 12.7 mph 20.7 mph N/A   Clear
11:55 AM 71.6 °F 53.6 °F 53% 29.94 in 10.0 mi WNW 10.4 mph - N/A   Clear
12:15 PM 71.6 °F 53.6 °F 53% 29.94 in 10.0 mi WNW 12.7 mph 21.9 mph N/A   Clear
12:35 PM 73.4 °F 53.6 °F 50% 29.94 in 10.0 mi WNW 13.8 mph 21.9 mph N/A   Clear
12:55 PM 73.4 °F 50.0 °F 44% 29.94 in 10.0 mi WNW 16.1 mph 26.5 mph N/A   Partly Cloudy
1:15 PM 73.4 °F 51.8 °F 47% 29.94 in 10.0 mi NW 18.4 mph 28.8 mph N/A   Partly Cloudy
1:35 PM 75.2 °F 50.0 °F 41% 29.94 in 10.0 mi NW 16.1 mph 23.0 mph N/A   Scattered Clouds
1:55 PM 75.2 °F 50.0 °F 41% 29.94 in 10.0 mi WNW 13.8 mph 25.3 mph N/A   Scattered Clouds
2:15 PM 75.2 °F 48.2 °F 38% 29.94 in 10.0 mi West 23.0 mph 29.9 mph N/A   Partly Cloudy
2:35 PM 75.2 °F 48.2 °F 38% 29.94 in 10.0 mi NW 18.4 mph 26.5 mph N/A   Clear
2:55 PM 77.0 °F 48.2 °F 36% 29.94 in 10.0 mi WNW 17.3 mph 29.9 mph N/A   Clear
3:15 PM 77.0 °F 48.2 °F 36% 29.94 in 10.0 mi WNW 23.0 mph 33.4 mph N/A   Clear
3:35 PM 77.0 °F 48.2 °F 36% 29.93 in 10.0 mi NW 21.9 mph 28.8 mph N/A   Partly Cloudy
3:55 PM 77.0 °F 46.4 °F 34% 29.93 in 10.0 mi NW 21.9 mph 27.6 mph N/A   Partly Cloudy
4:15 PM 77.0 °F 46.4 °F 34% 29.93 in 10.0 mi NW 19.6 mph 28.8 mph N/A   Scattered Clouds
4:35 PM 77.0 °F 46.4 °F 34% 29.93 in 10.0 mi WNW 20.7 mph 33.4 mph N/A   Scattered Clouds
4:55 PM 77.0 °F 46.4 °F 34% 29.93 in 10.0 mi WNW 20.7 mph 29.9 mph N/A   Scattered Clouds
5:15 PM 77.0 °F 46.4 °F 34% 29.93 in 10.0 mi NW 18.4 mph 28.8 mph N/A   Scattered Clouds
5:35 PM 77.0 °F 46.4 °F 34% 29.93 in 10.0 mi WNW 19.6 mph 28.8 mph N/A   Mostly Cloudy
5:55 PM 75.2 °F 46.4 °F 36% 29.93 in 10.0 mi NW 21.9 mph 31.1 mph N/A   Mostly Cloudy
6:15 PM 75.2 °F 48.2 °F 38% 29.94 in 10.0 mi NW 18.4 mph 25.3 mph N/A   Scattered Clouds
6:35 PM 73.4 °F 48.2 °F 41% 29.94 in 10.0 mi NW 18.4 mph 28.8 mph N/A   Mostly Cloudy
7:15 PM 73.4 °F 48.2 °F 41% 29.95 in 10.0 mi NW 15.0 mph 24.2 mph N/A   Mostly Cloudy
7:35 PM 71.6 °F 50.0 °F 46% 29.96 in 10.0 mi NNW 13.8 mph 21.9 mph N/A   Partly Cloudy
7:55 PM 71.6 °F 50.0 °F 46% 29.96 in 10.0 mi NNW 16.1 mph 20.7 mph N/A   Clear
8:15 PM 69.8 °F 50.0 °F 49% 29.97 in 10.0 mi NNW 10.4 mph 18.4 mph N/A   Clear
8:35 PM 68.0 °F 50.0 °F 52% 29.97 in 10.0 mi NNW 8.1 mph - N/A   Clear
8:55 PM 64.4 °F 50.0 °F 59% 29.98 in 10.0 mi NW 6.9 mph - N/A   Clear
9:15 PM 64.4 °F 50.0 °F 59% 29.99 in 10.0 mi WNW 4.6 mph - N/A   Clear
9:35 PM 62.6 °F 50.0 °F 63% 29.99 in 10.0 mi WNW 3.5 mph - N/A   Clear
9:55 PM 59.0 °F 50.0 °F 72% 30.00 in 10.0 mi WSW 5.8 mph - N/A   Clear
10:15 PM 59.0 °F 50.0 °F 72% 30.00 in 10.0 mi Calm Calm - N/A   Clear
10:35 PM 57.2 °F 50.0 °F 77% 30.00 in 10.0 mi WSW 3.5 mph - N/A   Clear
10:55 PM 57.2 °F 50.0 °F 77% 30.00 in 10.0 mi West 3.5 mph - N/A   Clear
11:15 PM 57.2 °F 50.0 °F 77% 30.00 in 10.0 mi West 6.9 mph - N/A   Scattered Clouds
11:35 PM 59.0 °F 50.0 °F 72% 30.00 in 10.0 mi WNW 6.9 mph - N/A   Partly Cloudy
11:55 PM 59.0 °F 51.8 °F 77% 30.00 in 10.0 mi West 5.8 mph - N/A   Clear